[[{"header":{"parameterUnit":"m.s-1","parameterCategory":1,"la1":30.2991,"la2":30.254,"lo1":-89.0895,"lo2":-89.0444,"dy":0.0017,"dx":0.0017,"nx":28,"ny":28,"refTime":"2025-07-29T09:00:00:Z","depth":0,"parameterNumber":2,"parameterNumberName":"U-component_of_WINDS"},"data":[0,0,0,0,0,0,0,0,0,0,0,0,0,0,0,0,0,0,0,0,0,0,0,0,0,0,0,0,0,0,0,0,0,0,0,0,0,0,0,0,0,0,0,0,0,0,0,0,0,0,0,0,0,0,0,0,0,0,3.7027,3.7028,0,3.7045,3.7046,3.7046,3.6931,3.6928,3.6924,3.6921,3.6945,3.6949,3.6952,0,0,0,0,0,0,0,0,0,0,0,0,0,3.69,3.6903,3.7027,3.7028,3.7028,3.7045,3.7046,3.7046,3.6931,3.6928,3.6924,3.692,3.6944,3.6948,3.6952,0,0,0,0,0,0,0,0,0,0,0,0,0,3.694,3.6904,3.7027,3.6973,3.6968,3.7045,3.7046,3.7046,3.6932,3.6927,3.6923,3.6918,3.6942,3.6948,3.6953,3.7085,0,0,3.697,3.6972,0,0,0,0,0,0,0,0,3.6938,3.6945,3.6981,3.6977,3.6971,3.6981,3.7009,3.7059,3.6934,3.6946,3.6921,3.6916,3.6961,3.6965,3.6979,3.7086,3.7087,3.697,3.6974,3.6976,3.6978,0,0,0,0,0,0,0,3.6935,3.6944,3.7035,3.6981,3.6976,3.6949,3.695,3.7018,3.6981,3.6945,3.6936,3.694,3.6958,3.6974,3.6979,3.7088,3.697,3.6975,3.6979,3.6981,3.7305,3.7311,0,0,0,0,0,0,3.6939,3.6942,3.7034,3.7035,3.6942,3.6955,3.6956,3.6983,3.698,3.6975,3.6944,3.6934,3.6967,3.6973,3.6979,3.7134,3.6976,3.6981,3.6984,3.73,3.7307,3.7312,0,0,0,0,0,0,3.6937,3.6948,3.7033,3.6986,3.6995,3.6963,3.6994,3.6986,3.7002,3.6979,3.6973,3.6967,3.6963,3.6971,3.706,3.7133,3.6984,3.6989,3.7294,3.7302,3.731,3.7445,0,0,0,0,0,0,3.6934,3.6948,3.6997,3.6988,3.6998,3.7112,3.6999,3.699,3.7011,3.6999,3.6999,3.6995,3.696,3.7052,3.7065,3.7138,3.6993,3.7287,3.7298,3.7307,3.7434,3.7457,3.7476,0,0,0,0,0,3.693,3.7035,3.7,3.7012,3.7058,3.7116,3.7122,3.7079,3.7017,3.7067,3.7053,3.6995,3.7123,3.7062,3.7076,3.7152,3.7282,3.7295,3.7306,3.7425,3.7452,3.7476,0,0,0,0,0,0,3.7055,3.7033,3.6994,3.7099,3.711,3.7097,3.7158,3.711,3.714,3.7127,3.7074,3.7075,3.7173,3.7171,3.7103,3.728,3.7192,3.7208,3.7278,3.7304,3.7325,3.7323,3.6998,0,0,0,0,0,3.7094,3.7142,3.7121,3.7217,3.7224,3.7191,3.7214,3.718,3.719,3.7195,3.7187,3.7201,3.7244,3.7274,3.7312,3.7433,3.7433,3.7493,3.7514,3.7531,3.7545,3.761,3.7637,3.7352,3.7352,3.7351,0,0,3.7177,3.7171,3.7205,3.7242,3.7246,3.7299,3.7195,3.7255,3.7294,3.7204,3.7287,3.7282,3.7294,3.7399,3.7445,3.7401,3.7624,3.7547,3.7561,3.7565,3.7626,3.7653,3.7677,3.736,3.7358,3.7357,0,0,3.7355,3.7355,3.7434,3.7441,3.7449,3.7426,3.7446,3.744,3.7432,3.7514,3.7448,3.7495,3.757,3.7582,3.7597,3.7781,3.773,3.7796,3.7907,3.7971,3.7993,3.8013,3.8079,3.8104,3.781,3.781,3.781,0,3.7457,3.7532,3.7482,3.7546,3.7565,3.7485,3.7567,3.7576,3.7598,3.7613,3.7563,3.7656,3.7659,3.7766,3.7811,3.7826,3.7848,3.7795,3.7993,3.8013,3.8031,3.8093,3.8118,3.7818,3.7817,3.7816,3.7815,0,3.7658,3.7712,3.7775,3.7796,3.7822,3.7895,3.7858,3.7891,3.7855,3.7838,3.7923,3.7923,3.7961,3.7983,3.7949,3.8087,3.8059,3.8002,3.7913,3.8067,3.8125,3.8148,3.7829,3.7826,3.7824,3.7822,0,0,3.7915,3.7907,3.7932,3.7941,3.7944,3.7985,3.8056,3.8091,3.8121,3.8138,3.8197,3.8263,3.821,3.8229,3.8195,3.8251,3.8398,3.8187,3.8187,3.8227,3.8551,3.8594,3.8623,3.8364,3.8368,3.8372,3.855,0,3.8089,3.8206,3.8164,3.8285,3.8335,3.826,3.8321,3.8331,3.8318,3.8359,3.8345,3.8393,3.8319,3.833,3.8382,3.8369,3.8463,3.8356,3.842,3.8422,3.8419,3.8653,3.8699,3.8867,3.8573,3.8577,3.8579,0,3.8308,3.8333,3.8459,3.8454,3.8474,3.8529,3.8559,3.8599,3.8609,3.8596,3.8616,3.8571,3.8642,3.8552,3.8649,3.8578,3.8602,3.86,3.8605,3.861,3.851,3.8665,3.892,3.8946,3.8615,3.8612,3.8609,0,3.8484,3.8549,3.8633,3.8643,3.864,3.8681,3.8682,3.8687,3.8712,3.8738,3.8754,3.8789,3.8809,3.8838,3.8804,3.8742,3.8908,3.8815,3.8899,3.8901,3.8938,3.8936,3.9201,3.8953,3.8952,3.8952,3.8951,0,3.8683,3.8763,3.8712,3.8764,3.8852,3.8803,3.8893,3.8885,3.8891,3.8941,3.888,3.8929,3.8881,3.8926,3.89,3.8986,3.8995,3.8987,3.8979,3.8993,3.8994,3.9008,3.8996,3.8959,3.8957,3.8956,3.8955,0,3.8894,3.8863,3.8949,3.8939,3.8939,3.9004,3.8996,3.9045,3.9027,3.9092,3.9104,3.9077,3.9127,3.9096,3.9147,3.913,3.9242,3.9218,3.9238,3.9231,3.9318,3.931,3.9601,3.9638,3.9366,3.9369,3.9371,0,3.9023,3.9083,3.9079,3.9108,3.9112,3.9159,3.9184,3.9139,3.9167,3.9184,3.9231,3.9276,3.9309,3.9393,3.9379,3.9418,3.9395,3.9494,3.9401,3.9412,3.9397,3.9394,3.9401,3.9513,3.9517,3.9519,3.9521,0,3.9257,3.9238,3.9275,3.9307,3.9338,3.9361,3.9379,3.9407,3.9362,3.9397,3.9447,3.9473,3.9525,3.957,3.9604,3.9606,3.9558,3.9551,3.9573,3.9587,3.9597,3.9593,3.929,3.9544,3.9542,3.954,3.9539,3.9538,3.9431,3.9481,3.9486,3.953,3.9539,3.9558,3.9603,3.959,3.963,3.9668,3.964,3.9699,3.971,3.9749,3.9758,3.9805,3.9765,3.9797,3.9805,3.9813,3.9825,3.9589,3.9811,3.9811,3.981,3.9809,3.9809,0,3.9662,3.9661,3.9702,3.9729,3.9764,3.9713,3.9731,3.9764,3.9817,3.983,3.9863,3.9921,3.9965,3.9955,3.9995,4.0035,4.0014,4.0047,4.0044,4.0046,3.9859,3.9836,4.0064,4.0064,4.0063,4.0063,4.0063,4.0063,3.9786,3.9868,3.9851,3.9937,3.9937,3.9993,4.0008,4.0026,4.0036,4.0103,4.0139,4.0131,4.0135,4.0175,4.0214,4.021,4.0228,4.027,4.0258,4.0084,4.0059,4.0035,4.0013,4.0274,4.0274,4.0441,4.0442,4.0444]},{"header":{"parameterUnit":"m.s-1","parameterCategory":1,"la1":30.2991,"la2":30.254,"lo1":-89.0895,"lo2":-89.0444,"dy":0.0017,"dx":0.0017,"nx":28,"ny":28,"refTime":"2025-07-29T09:00:00:Z","depth":0,"parameterNumber":3,"parameterNumberName":"V-component_of_WINDS"},"data":[0,0,0,0,0,0,0,0,0,0,0,0,0,0,0,0,0,0,0,0,0,0,0,0,0,0,0,0,0,0,0,0,0,0,0,0,0,0,0,0,0,0,0,0,0,0,0,0,0,0,0,0,0,0,0,0,0,0,2.1445,2.1447,0,2.1555,2.1556,2.1557,2.1604,2.1604,2.1604,2.1604,2.1714,2.1717,2.172,0,0,0,0,0,0,0,0,0,0,0,0,0,2.1274,2.1277,2.1445,2.1447,2.1448,2.1554,2.1556,2.1557,2.1604,2.1604,2.1604,2.1604,2.1713,2.1717,2.172,0,0,0,0,0,0,0,0,0,0,0,0,0,2.1362,2.1278,2.1445,2.1484,2.1489,2.1554,2.1556,2.1558,2.1605,2.1604,2.1604,2.1604,2.1712,2.1716,2.1721,2.1755,0,0,2.1735,2.1737,0,0,0,0,0,0,0,0,2.1357,2.1368,2.1477,2.1482,2.1487,2.1566,2.1536,2.1624,2.1605,2.1561,2.1604,2.1604,2.1665,2.1673,2.1694,2.176,2.1765,2.1736,2.1738,2.174,2.1742,0,0,0,0,0,0,0,2.1351,2.1364,2.1489,2.1479,2.1485,2.1495,2.1508,2.1553,2.1613,2.1564,2.1568,2.158,2.1667,2.169,2.1697,2.1766,2.1735,2.174,2.1742,2.1744,2.1862,2.1863,0,0,0,0,0,0,2.1339,2.1358,2.1485,2.1492,2.142,2.1499,2.1512,2.1541,2.1612,2.1623,2.1581,2.1582,2.1682,2.1692,2.1701,2.1744,2.174,2.1745,2.1747,2.1862,2.1862,2.1863,0,0,0,0,0,0,2.1335,2.135,2.1481,2.1426,2.1444,2.1502,2.1533,2.1543,2.1565,2.1625,2.1635,2.1593,2.1682,2.1695,2.1741,2.1749,2.1747,2.1751,2.1861,2.1862,2.1862,2.1831,0,0,0,0,0,0,2.133,2.1348,2.1362,2.1426,2.1446,2.1519,2.1534,2.1545,2.1573,2.1577,2.1639,2.1649,2.1683,2.1733,2.1745,2.1755,2.1755,2.1861,2.1862,2.1862,2.1832,2.183,2.1829,0,0,0,0,0,2.1323,2.1349,2.1363,2.1378,2.1466,2.152,2.1531,2.157,2.1574,2.1588,2.1626,2.1647,2.1746,2.1738,2.1751,2.1763,2.1861,2.1861,2.1862,2.1832,2.1831,2.1829,0,0,0,0,0,0,2.1285,2.1359,2.1374,2.1422,2.1464,2.1528,2.1547,2.1568,2.161,2.1611,2.1657,2.1671,2.1712,2.1742,2.1732,2.1798,2.1805,2.1808,2.1777,2.1776,2.1775,2.1767,2.1758,0,0,0,0,0,2.1282,2.132,2.1382,2.1418,2.1438,2.1489,2.1514,2.154,2.1585,2.1603,2.1645,2.1687,2.1728,2.1754,2.1794,2.1836,2.1849,2.185,2.1849,2.1848,2.185,2.1872,2.1873,2.1865,2.1865,2.1865,0,0,2.1276,2.1321,2.1343,2.1411,2.1447,2.1485,2.1504,2.1543,2.1571,2.1609,2.1655,2.1686,2.1737,2.178,2.1801,2.1806,2.1855,2.1849,2.1847,2.1851,2.1873,2.1874,2.1875,2.1866,2.1866,2.1866,0,0,2.1285,2.1324,2.1357,2.1392,2.1446,2.1479,2.1486,2.1546,2.1568,2.1615,2.1644,2.1677,2.1746,2.1781,2.1807,2.1825,2.1846,2.1837,2.1832,2.1853,2.1853,2.1854,2.186,2.1861,2.1839,2.1839,2.1839,0,2.1272,2.133,2.1371,2.1409,2.1437,2.1473,2.1506,2.1538,2.1602,2.162,2.1625,2.1711,2.1748,2.1798,2.1802,2.1823,2.1832,2.1831,2.185,2.1851,2.1853,2.1858,2.186,2.1838,2.1838,2.1838,2.1838,0,2.131,2.135,2.137,2.143,2.1461,2.1496,2.1541,2.1567,2.1589,2.1621,2.1667,2.1711,2.1761,2.1775,2.1798,2.1828,2.1829,2.1841,2.1849,2.1851,2.1857,2.186,2.1836,2.1836,2.1837,2.1837,0,0,2.13,2.1381,2.1388,2.1415,2.1475,2.1506,2.1541,2.159,2.1611,2.1653,2.1683,2.1739,2.175,2.178,2.1806,2.1825,2.1835,2.1834,2.1836,2.1832,2.1869,2.186,2.1862,2.1848,2.1849,2.1849,2.1865,0,2.1316,2.1383,2.1419,2.1469,2.1506,2.1539,2.1569,2.1609,2.1639,2.1673,2.1706,2.1744,2.1756,2.1774,2.1794,2.1829,2.1843,2.1829,2.1876,2.1877,2.1862,2.1866,2.1857,2.187,2.1868,2.1868,2.1869,0,2.1346,2.1387,2.144,2.1495,2.1512,2.1539,2.1585,2.1617,2.1662,2.1682,2.1714,2.174,2.1777,2.1781,2.1831,2.1821,2.1842,2.1862,2.1863,2.1869,2.1873,2.1872,2.1875,2.1876,2.1873,2.1873,2.1872,0,2.1331,2.14,2.1441,2.1463,2.1528,2.1546,2.1574,2.1618,2.1644,2.1684,2.1701,2.1744,2.1768,2.18,2.1836,2.1836,2.1882,2.189,2.1899,2.1898,2.1909,2.1908,2.1915,2.1922,2.1922,2.1922,2.1922,0,2.1347,2.1378,2.1435,2.146,2.1496,2.1536,2.157,2.16,2.1639,2.1669,2.17,2.1727,2.1774,2.1806,2.1835,2.1871,2.1882,2.1899,2.1906,2.1896,2.1894,2.1911,2.1911,2.1922,2.1922,2.1922,2.1922,0,2.1338,2.1378,2.1424,2.1481,2.1496,2.1519,2.1567,2.1592,2.1622,2.166,2.1671,2.1719,2.1759,2.1798,2.1852,2.1871,2.1907,2.1916,2.1892,2.1896,2.1903,2.1902,2.1922,2.1926,2.1929,2.1929,2.1929,0,2.1345,2.137,2.1429,2.1451,2.1478,2.1514,2.1541,2.1581,2.1607,2.1658,2.1676,2.1718,2.1754,2.1816,2.1855,2.1895,2.1906,2.191,2.1913,2.1901,2.1906,2.1904,2.1906,2.1909,2.1909,2.1909,2.1909,0,2.1353,2.1371,2.1408,2.1451,2.1482,2.1518,2.1555,2.1571,2.1618,2.1645,2.1687,2.1714,2.1768,2.1809,2.1854,2.1881,2.1902,2.1907,2.1912,2.1902,2.1887,2.1894,2.1889,2.1907,2.1907,2.1907,2.1907,2.1907,2.1352,2.1375,2.142,2.1459,2.1491,2.1524,2.155,2.1583,2.1618,2.1666,2.1687,2.1728,2.1769,2.1832,2.1858,2.189,2.1895,2.1902,2.1903,2.1904,2.1902,2.1881,2.1898,2.1898,2.1898,2.1898,2.1899,0,2.1361,2.1391,2.1427,2.1478,2.1508,2.1525,2.1566,2.1591,2.1626,2.1664,2.1698,2.1744,2.1783,2.1824,2.1866,2.1883,2.1894,2.1893,2.1892,2.1897,2.1895,2.1887,2.1883,2.1883,2.1883,2.1883,2.1883,2.1883,2.1369,2.1409,2.1431,2.1486,2.1515,2.1556,2.1578,2.1608,2.1638,2.1688,2.1721,2.1747,2.1786,2.183,2.1866,2.1877,2.189,2.1886,2.19,2.1897,2.1898,2.1899,2.1892,2.1889,2.1889,2.19,2.19,2.19]}]]